Location: Little Italy
(37.8008°N, 122.4108°W)
Time: 07:47:14
(UTC+00:00)

Cosmos 1833 Rocket - Pass Details

Date: 29 October 2020
Orbit: 832 x 840 km, 71.0° (Epoch: 02 December)

Event Time Altitude Azimuth Distance (km) Brightness Sun altitude
Exits shadow 13:29:18 15° 300° (WNW) 2,092 4.2 -13.0°
Maximum altitude 13:29:55 16° 308° (NW) 2,078 4.2 -12.9°
Drops below altitude 10° 13:33:15 10° 345° (NNW) 2,462 4.9 -12.3°
Sets 13:36:47 0° 7° (N) 3,401 5.8 -11.6°
